GW1093 Weather Reports


time (UTC)temp
C
wind
direction
speed
KPH
gust
KPH
rain 1hr
cm
rain 24hr
cm
rain mn
cm
humidity
%
barometer
mb
20260509162017 20 0 1.6 4.8 0.00 0.00 0.00 60 1003.6
20260509161530 19 265 1.6 4.8 0.00 0.00 0.00 62 1003.5
20260509161015 19 0 0.0 4.8 0.00 0.00 0.00 62 1003.5
20260509160512 18 283 1.6 6.4 0.00 0.00 0.00 62 1003.6
20260509160032 18 0 1.6 6.4 0.00 0.00 0.00 62 1003.6
20260509155512 18 0 0.0 4.8 0.00 0.00 0.00 65 1003.6
20260509155016 18 281 1.6 4.8 0.00 0.00 0.00 65 1003.6
20260509154529 18 293 1.6 4.8 0.00 0.00 0.00 67 1003.5
20260509154013 17 283 1.6 4.8 0.00 0.00 0.00 68 1003.6
20260509153511 17 290 1.6 4.8 0.00 0.00 0.00 68 1003.6
20260509153033 17 264 0.0 4.8 0.00 0.00 0.00 69 1003.6
20260509152511 17 113 0.0 6.4 0.00 0.00 0.00 70 1003.6
20260509152012 17 288 1.6 6.4 0.00 0.00 0.00 72 1003.7
20260509151535 17 281 1.6 4.8 0.00 0.00 0.00 72 1003.7
20260509151009 16 276 1.6 4.8 0.00 0.00 0.00 74 1003.7
20260509150511 16 269 1.6 6.4 0.00 0.00 0.00 74 1003.7
20260509150031 16 281 1.6 6.4 0.00 0.00 0.00 75 1003.6
20260509145512 16 285 1.6 4.8 0.00 0.00 0.00 75 1003.8
20260509145013 15 115 0.0 6.4 0.00 0.00 0.00 77 1003.8
20260509144530 15 281 1.6 6.4 0.00 0.00 0.00 77 1003.8
20260509144011 15 276 1.6 4.8 0.00 0.00 0.00 77 1003.6
20260509143512 15 282 1.6 4.8 0.00 0.00 0.00 77 1003.5
20260509143030 15 277 1.6 4.8 0.00 0.00 0.00 79 1003.4
20260509142511 15 275 1.6 4.8 0.00 0.00 0.00 79 1003.5
20260509142017 14 281 0.0 6.4 0.00 0.00 0.00 79 1003.5
20260509141536 14 271 1.6 6.4 0.00 0.00 0.00 80 1003.6
20260509141013 14 0 0.0 6.4 0.00 0.00 0.00 80 1003.6
20260509140511 13 113 1.6 6.4 0.00 0.00 0.00 81 1003.7
20260509140035 13 285 1.6 6.4 0.00 0.00 0.00 81 1003.7
20260509135511 13 278 1.6 6.4 0.00 0.00 0.00 81 1003.6
20260509135017 13 281 0.0 4.8 0.00 0.00 0.00 82 1003.4
20260509134538 13 267 0.0 4.8 0.00 0.00 0.00 83 1003.4
20260509134011 13 290 0.0 3.2 0.00 0.00 0.00 83 1003.4
20260509133510 13 266 0.0 3.2 0.00 0.00 0.00 83 1003.5
20260509133034 13 281 1.6 3.2 0.00 0.00 0.00 83 1003.5
20260509132510 12 0 1.6 8.0 0.00 0.00 0.00 84 1003.8
20260509132010 12 277 1.6 8.0 0.00 0.00 0.00 84 1003.7
20260509131550 12 317 1.6 6.4 0.00 0.00 0.00 84 1003.7
20260509131012 12 290 1.6 6.4 0.00 0.00 0.00 84 1003.5
20260509130512 12 276 1.6 6.4 0.00 0.00 0.00 85 1003.5
20260509130043 12 276 1.6 6.4 0.00 0.00 0.00 86 1003.5
20260509125513 12 289 1.6 6.4 0.00 0.00 0.00 86 1003.5
20260509125017 12 306 1.6 4.8 0.00 0.00 0.00 86 1003.6
20260509124539 12 277 1.6 4.8 0.00 0.00 0.00 87 1003.6
20260509124011 12 289 0.0 8.0 0.00 0.00 0.00 87 1003.5
20260509123510 11 275 1.6 8.0 0.00 0.00 0.00 88 1003.4
20260509123033 11 296 1.6 6.4 0.00 0.00 0.00 88 1003.6
20260509122511 11 0 0.0 4.8 0.00 0.00 0.00 89 1003.4
20260509122010 11 295 0.0 4.8 0.00 0.00 0.00 89 1003.4
20260509121530 11 293 0.0 4.8 0.00 0.00 0.00 89 1003.5
20260509121011 11 288 0.0 4.8 0.00 0.00 0.00 90 1003.5
20260509120517 11 286 1.6 4.8 0.00 0.00 0.00 91 1003.4
20260509120034 11 293 0.0 1.6 0.00 0.00 0.00 91 1003.5
20260509115511 11 281 0.0 1.6 0.00 0.00 0.00 91 1003.4
20260509115016 11 0 0.0 1.6 0.00 0.00 0.00 91 1003.5
20260509114531 11 0 0.0 1.6 0.00 0.00 0.00 91 1003.3
20260509114014 11 0 0.0 1.6 0.00 0.00 0.00 91 1003.3
20260509113512 11 0 0.0 1.6 0.00 0.00 0.00 91 1003.2
20260509113031 11 0 0.0 1.6 0.00 0.00 0.00 91 1003.2
20260509112511 11 0 0.0 3.2 0.00 0.00 0.00 91 1003.2
20260509112012 11 0 1.6 3.2 0.00 0.00 0.00 91 1003.3
20260509111532 11 0 0.0 1.6 0.00 0.00 0.00 91 1002.8
20260509111011 11 0 0.0 1.6 0.00 0.00 0.00 91 1002.8
20260509110513 11 291 0.0 1.6 0.00 0.00 0.00 91 1002.9
20260509110029 11 0 0.0 1.6 0.00 0.00 0.00 91 1002.9
20260509105513 11 0 0.0 1.6 0.00 0.00 0.00 91 1002.9
20260509105017 11 0 0.0 1.6 0.00 0.00 0.00 91 1003.0
20260509104530 11 0 0.0 1.6 0.00 0.00 0.00 91 1002.9
20260509104012 11 0 0.0 1.6 0.00 0.00 0.00 91 1002.9
20260509103511 10 0 0.0 0.0 0.00 0.00 0.00 91 1002.8
20260509103032 10 0 0.0 1.6 0.00 0.00 0.00 91 1002.8
20260509102511 10 0 0.0 1.6 0.00 0.00 0.00 91 1002.8
20260509102012 10 0 0.0 1.6 0.00 0.00 0.00 91 1003.0
20260509101532 10 0 0.0 1.6 0.00 0.00 0.00 90 1003.0
20260509101013 10 0 0.0 1.6 0.00 0.00 0.00 90 1003.1
20260509100512 11 0 0.0 1.6 0.00 0.00 0.00 90 1003.1
20260509100035 11 0 0.0 1.6 0.00 0.00 0.00 90 1003.2
20260509095512 11 0 0.0 1.6 0.00 0.00 0.00 90 1003.0
20260509095012 11 0 0.0 1.6 0.00 0.00 0.00 90 1003.2
20260509094530 11 0 0.0 1.6 0.00 0.00 0.00 90 1003.2
20260509094011 11 0 0.0 1.6 0.00 0.00 0.00 90 1003.3
20260509093511 11 293 0.0 1.6 0.00 0.00 0.00 90 1003.4
20260509093030 11 0 0.0 1.6 0.00 0.00 0.00 90 1003.5
20260509092513 11 281 0.0 1.6 0.00 0.00 0.00 90 1003.4
20260509092011 11 0 0.0 1.6 0.00 0.00 0.00 90 1003.4
20260509091531 11 282 0.0 1.6 0.00 0.00 0.00 90 1003.5
20260509091012 11 0 0.0 1.6 0.00 0.00 0.00 90 1003.5
20260509090510 11 0 0.0 3.2 0.00 0.00 0.00 90 1003.6
20260509090035 11 281 0.0 3.2 0.00 0.00 0.00 90 1003.6
20260509085512 11 314 0.0 1.6 0.00 0.00 0.00 90 1003.7
20260509085010 11 275 0.0 1.6 0.00 0.00 0.00 89 1003.7
20260509084535 11 0 0.0 1.6 0.00 0.00 0.00 89 1003.7
20260509084014 11 0 0.0 1.6 0.00 0.00 0.00 89 1003.7
20260509083520 11 291 0.0 1.6 0.00 0.00 0.00 89 1003.7
20260509083031 11 0 0.0 1.6 0.00 0.00 0.00 89 1003.6
20260509082510 11 0 0.0 1.6 0.00 0.00 0.00 89 1003.7
20260509082011 11 281 0.0 1.6 0.00 0.00 0.00 88 1003.7
20260509081541 11 0 0.0 1.6 0.00 0.00 0.00 88 1003.7
20260509081017 11 288 0.0 1.6 0.00 0.00 0.00 88 1003.6
20260509080511 11 0 0.0 1.6 0.00 0.00 0.00 88 1003.6
20260509080032 11 287 0.0 1.6 0.00 0.00 0.00 88 1003.6
20260509075517 11 0 0.0 1.6 0.00 0.00 0.00 88 1003.7
20260509075011 11 0 0.0 1.6 0.00 0.00 0.00 87 1003.7
20260509074531 11 0 0.0 1.6 0.00 0.00 0.00 87 1003.7
20260509074010 11 295 0.0 1.6 0.00 0.00 0.00 87 1003.8
20260509073512 11 0 0.0 1.6 0.00 0.00 0.00 87 1003.7
20260509073028 11 0 0.0 1.6 0.00 0.00 0.00 87 1003.6
20260509072520 11 274 0.0 1.6 0.00 0.00 0.00 86 1003.7
20260509072018 11 275 0.0 1.6 0.00 0.00 0.00 86 1003.8
20260509071528 11 0 0.0 1.6 0.00 0.00 0.00 86 1003.9
20260509071011 11 0 0.0 1.6 0.00 0.00 0.00 86 1004.1
20260509070514 11 283 0.0 1.6 0.00 0.00 0.00 86 1004.4
20260509070028 11 0 0.0 1.6 0.00 0.00 0.00 85 1004.4
20260509065510 11 0 0.0 1.6 0.00 0.00 0.00 85 1004.3
20260509065016 11 0 0.0 1.6 0.00 0.00 0.00 85 1004.4
20260509064532 11 0 0.0 1.6 0.00 0.00 0.00 85 1004.4
20260509064014 11 0 0.0 1.6 0.00 0.00 0.00 85 1004.4
20260509063513 11 300 0.0 1.6 0.00 0.00 0.00 85 1004.4
20260509063031 11 0 0.0 1.6 0.00 0.00 0.00 85 1004.4
20260509062511 12 0 0.0 1.6 0.00 0.00 0.00 84 1004.6
20260509062013 12 0 0.0 1.6 0.00 0.00 0.00 84 1004.6
20260509061530 12 0 0.0 1.6 0.00 0.00 0.00 84 1004.7
20260509061013 12 0 0.0 1.6 0.00 0.00 0.00 84 1004.6
20260509060513 12 0 0.0 1.6 0.00 0.00 0.00 84 1004.7
20260509060028 12 294 0.0 1.6 0.00 0.00 0.00 84 1004.8
20260509055513 12 0 0.0 1.6 0.00 0.00 0.00 84 1004.8
20260509055009 12 300 0.0 1.6 0.00 0.00 0.00 84 1004.9
20260509054540 12 284 0.0 3.2 0.00 0.00 0.00 84 1005.0
20260509054013 12 0 0.0 3.2 0.00 0.00 0.00 84 1005.1
20260509053514 12 0 0.0 1.6 0.00 0.00 0.00 84 1005.0
20260509053106 12 0 0.0 3.2 0.00 0.00 0.00 83 1004.9
20260509052515 12 276 0.0 3.2 0.00 0.00 0.00 83 1004.9
20260509052014 12 0 0.0 3.2 0.00 0.00 0.00 83 1004.8
20260509051529 12 0 0.0 1.6 0.00 0.00 0.00 83 1004.9
20260509051012 12 0 0.0 1.6 0.00 0.00 0.00 82 1004.9
20260509050512 12 283 0.0 1.6 0.00 0.00 0.00 82 1004.9
20260509050040 12 0 0.0 1.6 0.00 0.00 0.00 82 1004.9
20260509045510 13 287 0.0 1.6 0.00 0.00 0.00 81 1004.8
20260509045016 13 282 0.0 3.2 0.00 0.00 0.00 81 1004.9
20260509044530 13 0 0.0 3.2 0.00 0.00 0.00 81 1004.8
20260509044015 13 0 0.0 1.6 0.00 0.00 0.00 80 1004.8
20260509043515 13 285 0.0 1.6 0.00 0.00 0.00 80 1005.0
20260509043030 13 0 0.0 1.6 0.00 0.00 0.00 79 1005.0
20260509042514 13 0 0.0 1.6 0.00 0.00 0.00 78 1005.1
20260509042013 13 276 0.0 1.6 0.00 0.00 0.00 78 1005.1
20260509041532 13 294 0.0 1.6 0.00 0.00 0.00 77 1005.1
20260509041014 13 0 0.0 4.8 0.00 0.00 0.00 77 1005.3
20260509040517 13 0 0.0 4.8 0.00 0.00 0.00 76 1005.3
20260509040029 13 288 0.0 4.8 0.00 0.00 0.00 75 1005.2
20260509035512 13 278 0.0 1.6 0.00 0.00 0.00 75 1005.2
20260509035014 13 0 0.0 1.6 0.00 0.00 0.00 74 1005.2
20260509034530 13 278 0.0 1.6 0.00 0.00 0.00 74 1005.2
20260509034014 13 0 0.0 0.0 0.00 0.00 0.00 73 1005.1
20260509033513 13 0 0.0 0.0 0.00 0.00 0.00 73 1005.2
20260509033032 14 0 0.0 0.0 0.00 0.00 0.00 72 1005.2
20260509032514 14 0 0.0 0.0 0.00 0.00 0.00 72 1005.2
20260509032013 14 0 0.0 0.0 0.00 0.00 0.00 72 1005.1
20260509031532 14 0 0.0 0.0 0.00 0.00 0.00 72 1005.3
20260509031017 14 0 0.0 0.0 0.00 0.00 0.00 72 1005.1
20260509030513 14 0 0.0 0.0 0.00 0.00 0.00 72 1005.3
20260509030034 14 0 0.0 0.0 0.00 0.00 0.00 72 1005.4
20260509025514 14 0 0.0 0.0 0.00 0.00 0.00 71 1005.3
20260509025014 14 0 0.0 0.0 0.00 0.00 0.00 71 1005.3
20260509024533 15 0 0.0 0.0 0.00 0.00 0.00 70 1005.3
20260509024017 15 0 0.0 0.0 0.00 0.00 0.00 69 1005.3
20260509023512 15 0 0.0 0.0 0.00 0.00 0.00 68 1005.4
20260509023043 15 0 0.0 0.0 0.00 0.00 0.00 66 1005.3
20260509022516 15 0 0.0 0.0 0.00 0.00 0.00 63 1005.3
20260509022015 15 0 0.0 0.0 0.00 0.00 0.00 62 1005.4
20260509021532 15 0 0.0 0.0 0.00 0.00 0.00 61 1005.4
20260509021012 15 0 0.0 0.0 0.00 0.00 0.00 61 1005.3
20260509020515 15 0 0.0 0.0 0.00 0.00 0.00 60 1005.1
20260509020030 15 0 0.0 0.0 0.00 0.00 0.00 60 1005.1
20260509015515 15 0 0.0 0.0 0.00 0.00 0.00 60 1005.0
20260509015014 16 0 0.0 0.0 0.00 0.00 0.00 59 1005.0
20260509014537 16 0 0.0 0.0 0.00 0.00 0.00 57 1005.0
20260509014013 16 0 0.0 0.0 0.00 0.00 0.00 57 1004.9
20260509013512 16 0 0.0 0.0 0.00 0.00 0.00 58 1005.0
20260509013030 16 0 0.0 1.6 0.00 0.00 0.00 56 1005.0
20260509012512 16 0 0.0 1.6 0.00 0.00 0.00 56 1005.0
20260509012016 16 0 0.0 0.0 0.00 0.00 0.00 56 1004.9
20260509011534 16 0 0.0 0.0 0.00 0.00 0.00 54 1004.9
20260509011013 16 284 0.0 0.0 0.00 0.00 0.00 55 1004.9
20260509010509 17 0 0.0 0.0 0.00 0.00 0.00 54 1004.9
20260509010030 17 0 0.0 1.6 0.00 0.00 0.00 54 1004.9
20260509005513 17 0 0.0 1.6 0.00 0.00 0.00 54 1004.9
20260509005015 17 0 0.0 1.6 0.00 0.00 0.00 53 1004.9
20260509004533 17 0 0.0 1.6 0.00 0.00 0.00 54 1004.9
20260509004013 17 0 0.0 0.0 0.00 0.00 0.00 56 1004.9
20260509003511 17 0 0.0 0.0 0.00 0.00 0.00 56 1004.9
20260509003044 17 0 0.0 0.0 0.00 0.00 0.00 55 1004.9
20260509002513 17 0 0.0 0.0 0.00 0.00 0.00 56 1005.0
20260509002012 17 0 0.0 0.0 0.00 0.00 0.00 55 1004.9
20260509001530 17 0 0.0 0.0 0.00 0.00 0.00 54 1004.9
20260509001013 17 0 0.0 0.0 0.00 0.00 0.00 54 1004.9
20260509000514 17 0 0.0 0.0 0.00 0.00 0.00 53 1004.9
20260509000029 18 0 0.0 0.0 0.00 0.00 0.00 53 1005.0
20260508235514 18 0 0.0 0.0 0.00 0.00 0.00 52 1005.0
20260508235010 18 0 0.0 1.6 0.00 0.00 0.00 51 1005.0
20260508234532 18 0 0.0 1.6 0.00 0.00 0.00 50 1005.0
20260508234013 18 0 0.0 1.6 0.00 0.00 0.00 50 1005.1
20260508233511 18 284 0.0 1.6 0.00 0.00 0.00 49 1005.1
20260508233028 19 284 0.0 1.6 0.00 0.00 0.00 48 1005.1
20260508232509 19 284 0.0 1.6 0.00 0.00 0.00 48 1005.1
20260508232011 20 288 0.0 1.6 0.00 0.00 0.00 47 1005.1
20260508231534 20 0 0.0 1.6 0.00 0.00 0.00 47 1005.1
20260508231013 20 283 0.0 4.8 0.00 0.00 0.00 48 1005.0
20260508230511 19 0 1.6 4.8 0.00 0.00 0.00 48 1005.1
20260508230033 20 280 1.6 4.8 0.00 0.00 0.00 48 1005.2
20260508225517 20 287 0.0 4.8 0.00 0.00 0.00 49 1005.1
20260508225012 19 0 0.0 4.8 0.00 0.00 0.00 49 1005.2
20260508224531 19 278 0.0 4.8 0.00 0.00 0.00 48 1005.2
20260508224013 20 283 0.0 4.8 0.00 0.00 0.00 48 1005.2
20260508223517 20 0 0.0 3.2 0.00 0.00 0.00 49 1005.4
20260508223031 20 272 0.0 3.2 0.00 0.00 0.00 49 1005.4
20260508222513 20 273 0.0 1.6 0.00 0.00 0.00 50 1005.4
20260508222013 20 272 0.0 1.6 0.00 0.00 0.00 49 1005.5
20260508221529 20 0 0.0 3.2 0.00 0.00 0.00 50 1005.4
20260508221013 20 276 0.0 3.2 0.00 0.00 0.00 49 1005.5
20260508220516 20 212 0.0 1.6 0.00 0.00 0.00 49 1005.5
20260508220028 19 118 0.0 1.6 0.00 0.00 0.00 50 1005.5
20260508215512 19 0 0.0 3.2 0.00 0.00 0.00 48 1005.5
20260508215011 20 0 1.6 3.2 0.00 0.00 0.00 46 1005.5
20260508214532 20 0 0.0 4.8 0.00 0.00 0.00 47 1005.7
20260508214013 20 290 0.0 4.8 0.00 0.00 0.00 46 1005.6
20260508213511 19 284 1.6 3.2 0.00 0.00 0.00 48 1005.6
20260508213029 19 275 0.0 1.6 0.00 0.00 0.00 48 1005.6
20260508212514 19 278 0.0 3.2 0.00 0.00 0.00 47 1005.6
20260508212013 19 0 0.0 3.2 0.00 0.00 0.00 44 1005.6
20260508211531 20 0 0.0 1.6 0.00 0.00 0.00 48 1005.7
20260508211016 19 0 0.0 3.2 0.00 0.00 0.00 50 1005.6
20260508210511 20 0 0.0 3.2 0.00 0.00 0.00 47 1005.7
20260508210033 20 286 0.0 3.2 0.00 0.00 0.00 49 1005.7
20260508205513 20 286 0.0 4.8 0.00 0.00 0.00 48 1005.6
20260508205015 20 165 0.0 4.8 0.00 0.00 0.00 47 1005.6
20260508204528 20 53 1.6 4.8 0.00 0.00 0.00 45 1005.7
20260508204014 20 0 0.0 1.6 0.00 0.00 0.00 47 1005.9
20260508203510 20 0 0.0 1.6 0.00 0.00 0.00 47 1005.9
20260508203037 20 334 0.0 3.2 0.00 0.00 0.00 47 1006.0
20260508202513 20 288 0.0 3.2 0.00 0.00 0.00 46 1006.1
20260508202013 20 293 0.0 3.2 0.00 0.00 0.00 49 1006.3
20260508201530 20 278 0.0 3.2 0.00 0.00 0.00 48 1006.4
20260508201018 20 278 0.0 1.6 0.00 0.00 0.00 47 1006.4
20260508200513 19 281 0.0 3.2 0.00 0.00 0.00 49 1006.5
20260508200034 19 281 0.0 3.2 0.00 0.00 0.00 43 1006.6
20260508195511 20 274 0.0 3.2 0.00 0.00 0.00 44 1006.7
20260508195011 20 270 0.0 3.2 0.00 0.00 0.00 43 1006.8
20260508194528 20 290 1.6 4.8 0.00 0.00 0.00 40 1006.8
20260508194012 20 284 1.6 4.8 0.00 0.00 0.00 42 1006.9
20260508193511 20 0 0.0 3.2 0.00 0.00 0.00 43 1007.0
20260508193029 20 279 1.6 3.2 0.00 0.00 0.00 44 1007.0
20260508192513 20 285 0.0 3.2 0.00 0.00 0.00 45 1007.0
20260508192013 19 0 1.6 3.2 0.00 0.00 0.00 48 1007.1
20260508191534 19 0 0.0 1.6 0.00 0.00 0.00 48 1007.0
20260508191012 18 0 0.0 1.6 0.00 0.00 0.00 50 1007.1
20260508190513 19 0 0.0 1.6 0.00 0.00 0.00 50 1007.3
20260508190041 19 0 0.0 1.6 0.00 0.00 0.00 50 1007.4
20260508185513 19 271 0.0 1.6 0.00 0.00 0.00 50 1007.4
20260508185012 19 0 0.0 1.6 0.00 0.00 0.00 52 1007.5
20260508184535 18 0 0.0 0.0 0.00 0.00 0.00 52 1007.4
20260508184013 19 0 0.0 0.0 0.00 0.00 0.00 53 1007.5
20260508183511 19 0 0.0 1.6 0.00 0.00 0.00 52 1007.5
20260508183031 19 0 0.0 3.2 0.00 0.00 0.00 52 1007.5
20260508182513 20 279 1.6 3.2 0.00 0.00 0.00 50 1007.7
20260508182012 20 0 0.0 3.2 0.00 0.00 0.00 53 1007.7
20260508181528 19 44 0.0 3.2 0.00 0.00 0.00 55 1007.7
20260508181018 18 74 0.0 1.6 0.00 0.00 0.00 55 1007.7
20260508180512 18 277 0.0 3.2 0.00 0.00 0.00 55 1007.9
20260508180030 18 0 0.0 3.2 0.00 0.00 0.00 59 1007.9
20260508175516 18 0 0.0 1.6 0.00 0.00 0.00 59 1008.0
20260508175014 18 0 0.0 1.6 0.00 0.00 0.00 58 1008.0
20260508174548 18 0 0.0 1.6 0.00 0.00 0.00 60 1008.2
20260508174013 18 0 0.0 1.6 0.00 0.00 0.00 60 1008.2
20260508173513 18 0 0.0 1.6 0.00 0.00 0.00 61 1008.2
20260508173032 18 0 0.0 3.2 0.00 0.00 0.00 59 1008.3
20260508172516 18 0 0.0 3.2 0.00 0.00 0.00 59 1008.4
20260508172011 18 0 0.0 3.2 0.00 0.00 0.00 59 1008.7
20260508171533 18 39 0.0 3.2 0.00 0.00 0.00 60 1008.6
20260508171022 18 0 0.0 1.6 0.00 0.00 0.00 61 1008.6
20260508170513 18 0 0.0 1.6 0.00 0.00 0.00 59 1008.6
20260508170034 18 0 0.0 1.6 0.00 0.00 0.00 59 1008.8
20260508165513 18 0 0.0 1.6 0.00 0.00 0.00 62 1008.9
20260508165014 17 0 0.0 1.6 0.00 0.00 0.00 62 1009.0
20260508164528 17 293 0.0 1.6 0.00 0.00 0.00 62 1009.0
20260508164012 17 0 0.0 1.6 0.00 0.00 0.00 62 1009.0
20260508163511 17 0 0.0 1.6 0.00 0.00 0.00 63 1009.1
20260508163046 17 0 0.0 1.6 0.00 0.00 0.00 62 1009.3
20260508162514 17 0 0.0 4.8 0.00 0.00 0.00 62 1009.5